Voltar ao catálogo

CZ-4 DEB

AtivoSSO
NORAD 37624·DEBRIS·🇨🇳 China

Lançado Sep 3, 1990 de Taiyuan Satellite Launch Center

Loading…

Próximas Passagens (próximas 24 horas)

TLE

AtualizadoSource: Space-Track

Época: Sep 13, 2026, 04:10 UTC

1 37624U 90081DL  26256.17424947  .00000217  00000-0  15274-3 0  9991
2 37624  98.9213 235.9551 0012931 102.9749 317.0138 14.08176085667758

Acompanhe CZ-4 DEB em tempo real com AllMySat

Download on the App Store